Theta_e
298 298 298 298 299 299 299 299 299 300 300 300 299 299 299 299 299 299 299 299 299 299 300 300 301 301 302 302 302 302 302 302 302 303 303 303 303 303 303 304 304 304 305 305 305 306 307 308 309 310 311 312 313 314 314 314 314 314 313 312 311 310 309 309 308 308 308 308 308
298 298 298 299 299 299 299 299 299 299 299 299 299 299 299 299 299 299 299 299 300 300 300 300 301 302 302 302 302 302 302 302 302 302 302 302 303 303 303 303 304 304 305 305 305 305 306 308 309 309 310 312 312 313 314 315 315 314 313 312 311 311 309 309 308 308 308 308 308
297 298 298 298 298 297 297 297 298 298 299 299 299 299 299 299 299 299 299 299 300 300 300 300 301 302 302 302 302 302 302 302 302 302 302 302 302 303 303 303 303 304 304 305 305 305 306 307 308 309 309 310 311 312 313 314 314 314 313 313 312 311 310 309 309 308 308 308 308
298 298 297 297 297 297 297 297 297 298 298 298 299 299 299 299 299 299 299 300 300 300 300 300 301 302 302 302 302 302 302 302 302 302 302 302 302 303 303 303 303 303 304 304 305 305 306 306 307 308 309 309 310 311 312 313 314 313 313 313 312 312 311 309 309 309 308 308 308
297 297 297 297 297 298 298 298 298 297 298 298 298 298 298 299 299 299 299 299 299 299 300 301 301 302 302 302 302 301 302 302 302 302 302 302 302 303 303 303 303 303 303 304 304 305 305 306 306 307 308 309 310 310 311 312 313 313 313 313 313 312 311 310 310 309 309 308 308
297 297 298 298 298 298 298 298 298 298 298 298 298 298 298 298 298 298 298 299 299 300 301 301 301 302 302 302 301 301 302 302 302 302 302 302 302 302 303 303 303 303 303 303 304 304 305 305 306 307 307 308 310 310 312 313 313 313 313 312 312 312 311 311 311 310 309 308 307
297 297 297 298 298 298 298 298 298 298 298 298 298 297 297 298 298 298 298 298 299 299 300 301 301 301 301 302 301 301 301 301 302 302 302 302 302 302 303 303 303 303 303 303 304 304 305 305 305 306 307 308 309 310 311 312 312 312 312 312 312 312 312 311 311 310 309 308 307
298 298 298 298 298 298 298 298 298 298 298 297 297 298 298 298 298 298 298 298 298 299 299 300 301 301 301 301 301 301 301 301 301 301 301 301 302 302 302 302 303 303 303 303 303 304 304 305 305 305 306 307 308 309 310 311 312 311 311 311 312 312 312 312 311 310 309 309 308
297 298 298 298 298 298 298 299 298 298 297 297 297 298 298 298 298 298 298 298 298 299 300 300 301 301 301 301 301 301 301 301 301 301 301 301 302 302 302 302 302 302 303 303 303 304 304 304 304 305 306 306 307 308 309 310 311 311 311 311 311 312 312 312 311 310 309 309 308
297 297 298 298 298 298 298 299 299 298 298 298 298 298 298 299 299 299 299 299 299 300 300 300 301 301 301 301 301 301 301 301 301 301 301 301 302 302 303 302 302 302 302 303 303 303 304 304 304 304 305 306 306 307 308 309 310 311 311 310 311 312 312 311 311 311 310 309 308
297 297 297 297 298 298 298 298 298 298 298 298 298 298 298 299 299 299 299 300 300 299 300 300 300 301 300 301 301 301 301 301 301 301 301 301 302 302 303 302 303 303 303 303 303 303 303 303 303 304 305 305 306 307 307 308 309 310 311 311 311 311 311 311 311 311 310 309 309
297 297 298 298 298 298 298 298 298 298 298 298 298 298 298 298 298 299 299 299 299 299 299 300 300 300 300 300 301 301 301 301 301 301 301 301 302 302 303 303 303 303 303 303 303 302 302 302 303 304 304 305 305 306 307 308 309 309 310 310 310 310 311 311 311 310 310 310 309
297 297 297 298 298 298 298 298 297 297 297 297 298 298 298 298 298 299 299 299 299 299 299 300 300 300 300 300 300 300 301 301 301 301 301 301 302 302 302 303 303 303 303 303 302 302 302 302 303 304 304 304 305 305 306 307 308 308 309 310 310 310 310 310 310 310 310 310 309
297 297 297 298 298 298 297 297 297 297 297 297 297 298 298 298 298 299 299 298 298 298 299 299 300 300 300 300 300 300 301 301 301 301 301 301 301 301 302 302 302 302 302 302 302 302 303 303 303 303 303 304 304 305 306 306 307 308 308 309 309 310 310 310 311 310 310 309 309
297 297 297 298 298 297 297 297 297 297 297 297 297 298 298 298 298 299 299 299 299 299 299 299 299 300 300 301 301 301 301 300 301 301 301 301 301 301 301 301 302 302 302 302 302 302 303 303 303 303 303 304 304 305 306 306 307 307 308 308 309 309 310 310 311 310 309 309 309
297 297 297 297 297 297 297 297 297 297 297 297 297 298 298 298 298 299 299 299 299 299 299 299 299 300 300 300 300 300 301 300 300 300 300 300 301 301 301 300 301 302 302 302 302 302 302 302 303 303 303 303 304 305 306 306 307 307 308 309 309 309 310 310 310 310 310 309 309
297 297 297 297 297 297 297 297 297 297 297 297 297 298 298 298 298 299 299 299 299 299 299 299 299 299 299 300 300 300 300 300 300 299 299 299 300 300 300 300 301 301 302 302 302 302 303 303 303 303 304 304 304 305 306 306 306 307 308 309 309 310 310 310 311 311 311 310 309
296 297 297 297 297 297 297 297 297 297 297 297 297 297 297 298 298 298 298 299 299 299 299 299 299 299 299 299 299 299 299 299 299 299 299 299 300 300 301 301 301 301 302 302 302 302 303 303 303 304 304 305 305 305 305 306 306 307 308 309 310 311 311 311 311 311 311 310 310
296 296 297 297 297 297 297 297 297 297 297 297 297 297 297 297 297 297 298 298 298 298 298 298 299 299 299 299 299 299 299 299 299 299 299 299 300 301 301 301 301 302 302 302 302 302 302 303 303 304 305 305 305 305 305 306 306 307 308 309 310 311 311 311 311 311 311 311 310
295 296 296 296 297 297 297 297 297 297 298 297 298 297 297 297 297 297 297 297 298 298 298 298 298 298 298 299 299 299 299 298 299 299 299 299 300 300 301 302 302 302 302 302 302 302 303 303 304 304 305 305 305 305 306 306 307 308 308 310 310 311 311 311 311 311 311 311 311
295 295 296 296 296 297 297 297 297 298 298 298 297 297 297 297 297 297 297 297 297 297 297 297 298 298 298 298 299 299 299 298 299 299 299 299 299 300 301 301 301 301 301 301 302 302 303 304 305 304 305 305 305 306 306 307 307 307 309 310 310 311 311 311 311 311 311 311 311
294 295 295 295 296 296 297 297 297 297 297 297 297 297 297 297 297 297 297 298 298 298 297 297 297 297 298 298 299 299 299 299 299 299 299 299 299 299 300 301 301 301 301 301 302 304 305 305 305 305 305 305 305 305 305 306 306 307 308 309 310 310 311 311 311 311 311 310 310
294 294 295 295 295 296 296 296 296 296 296 296 297 297 297 297 297 297 298 298 297 297 297 297 297 297 298 298 299 299 299 299 299 299 299 299 299 299 300 300 300 301 301 302 304 305 305 305 305 305 305 304 304 304 304 305 306 306 307 307 308 309 310 310 310 310 310 310 310
294 294 295 295 295 295 295 295 295 295 295 295 296 296 296 296 296 297 297 297 297 297 296 296 297 297 297 298 299 299 298 298 298 299 299 299 299 299 300 300 300 301 302 304 305 305 304 304 304 303 304 304 304 303 303 304 305 305 306 306 307 307 309 309 310 310 310 311 310
294 294 294 294 294 294 294 294 295 295 295 295 295 295 295 295 296 296 296 296 296 296 296 296 296 296 297 297 297 298 298 298 298 298 298 299 299 300 300 300 300 301 302 304 305 304 303 302 302 302 302 302 303 303 303 303 304 304 305 306 306 307 307 308 309 310 311 311 311
294 294 294 294 294 294 294 294 294 294 294 295 295 295 295 295 295 295 295 295 295 295 295 295 295 296 296 296 297 297 297 298 298 298 298 299 299 300 300 301 301 302 302 303 303 303 303 302 302 302 301 301 302 302 302 303 303 304 305 305 306 306 307 307 308 309 310 311 311
293 294 294 294 294 294 294 294 294 294 294 295 295 295 295 295 295 295 295 294 295 295 295 295 295 296 296 296 296 296 296 297 298 298 298 299 299 300 300 301 301 301 301 302 302 302 302 303 303 302 302 302 301 301 301 301 303 303 304 305 306 306 307 307 307 308 309 309 310
293 294 294 294 294 294 294 294 294 294 294 295 295 295 295 295 295 295 295 295 294 295 295 295 295 296 296 296 296 296 296 296 298 299 299 300 300 300 300 301 300 300 300 301 302 302 302 303 303 303 303 302 302 302 302 302 302 302 303 304 305 306 307 307 307 308 308 308 309
293 294 294 294 294 294 294 294 294 294 294 295 295 295 295 295 295 295 295 294 295 294 295 295 295 296 296 296 296 296 297 297 297 298 299 300 299 300 299 299 299 299 300 302 302 302 302 303 303 303 303 302 301 301 302 302 302 303 303 304 306 306 307 307 308 308 308 308 309
294 294 294 294 294 294 294 294 294 294 295 295 295 295 295 295 294 294 294 294 294 294 295 295 296 295 296 296 296 297 297 297 297 297 297 296 297 297 298 298 298 299 300 301 301 302 302 302 303 303 303 303 302 301 301 302 302 302 303 303 305 306 307 307 307 307 308 308 309
294 294 294 294 294 294 294 294 294 295 295 295 294 294 294 294 294 295 295 295 295 295 296 296 296 296 296 297 296 296 296 296 296 296 296 296 296 296 297 297 297 298 299 301 301 301 302 302 302 302 302 302 301 301 301 302 302 302 302 303 304 305 306 307 307 307 307 308 309
294 294 294 294 294 294 294 295 295 295 295 294 294 294 294 294 294 295 295 295 295 295 296 296 296 296 296 297 297 297 296 296 296 297 296 296 296 296 297 297 297 298 299 300 301 301 301 302 302 302 302 302 302 302 302 303 303 303 303 303 304 305 306 308 308 307 307 307 308
294 294 294 294 294 294 294 295 295 295 295 294 294 294 294 294 295 295 295 295 295 295 295 295 296 296 296 296 297 297 297 297 297 297 297 297 297 297 297 297 297 298 299 300 300 301 301 301 301 302 302 302 301 302 302 303 304 304 304 304 305 306 307 308 308 308 307 307 308
294 294 294 294 294 294 294 295 295 295 295 294 294 294 294 294 294 295 295 295 295 295 295 295 296 296 296 297 296 296 296 296 296 297 297 297 297 296 296 296 297 298 299 300 300 300 300 301 301 301 302 302 301 301 302 303 303 304 304 305 306 307 308 308 308 308 308 308 308
294 294 294 294 294 294 294 295 295 294 294 294 294 294 294 294 294 294 295 295 296 295 295 295 295 296 296 296 296 296 296 296 295 296 296 296 296 296 295 296 296 297 299 300 300 300 300 300 301 301 301 301 301 301 301 302 303 303 304 306 306 306 307 307 308 308 309 309 309
294 294 294 294 294 294 294 294 294 294 294 294 294 294 294 294 295 295 295 296 296 295 295 295 295 295 295 295 295 295 295 295 295 295 295 296 296 295 295 295 296 297 299 300 300 300 300 300 300 301 301 300 300 300 301 301 302 303 304 305 305 306 306 307 307 308 309 310 310
295 294 294 294 294 294 294 294 294 294 294 293 294 294 294 294 295 295 295 296 295 295 295 295 294 294 294 294 294 295 295 295 295 295 295 296 295 295 295 295 295 296 298 299 299 299 299 300 300 300 300 299 299 300 300 301 302 303 303 304 304 305 305 306 307 307 309 309 310
294 294 294 294 294 294 294 294 294 293 293 293 294 294 294 294 294 295 295 295 295 294 294 294 294 294 294 295 294 295 295 295 295 295 295 295 295 295 295 294 295 296 297 298 299 299 299 300 300 301 300 299 299 300 300 301 301 302 302 302 303 303 304 304 305 306 306 307 308
295 294 294 294 294 294 294 294 293 293 293 294 294 294 294 294 295 295 295 295 295 294 294 294 294 295 295 295 295 295 295 295 295 296 295 295 295 296 295 294 295 295 297 298 298 299 299 300 300 301 301 300 300 300 300 301 301 301 301 301 301 301 302 302 303 303 304 305 306
295 294 294 294 294 294 294 293 293 294 294 294 294 294 294 295 295 295 295 296 295 295 295 294 295 295 295 296 295 295 295 295 295 296 296 296 296 297 296 295 295 295 296 298 298 299 299 300 301 301 301 300 299 300 300 300 300 299 299 300 300 300 300 301 302 303 303 304 306
295 294 294 294 294 294 294 293 294 294 294 294 294 294 295 295 295 295 295 295 295 295 295 294 295 295 295 296 295 295 295 295 295 295 295 296 296 296 296 296 295 295 296 297 298 298 299 300 300 301 300 299 299 299 299 299 298 298 298 299 299 299 300 300 301 302 303 304 305
Wind_Speed
10 9 8 7 7 7 7 7 7 8 8 7 8 8 8 8 8 8 8 7 7 7 7 7 7 8 9 10 11 11 11 12 13 13 14 15 15 15 15 15 14 14 14 14 14 13 12 12 11 9 8 8 9 9 8 8 8 9 9 10 9 10 11 12 12 12 13 14 11
11 11 10 9 9 8 7 7 8 8 8 7 8 8 8 8 8 8 8 8 8 8 7 7 8 9 10 11 11 11 11 12 13 13 14 15 15 15 15 14 14 14 14 14 14 12 11 11 10 9 8 8 8 9 9 8 8 8 9 11 9 9 9 10 11 12 13 13 12
12 11 10 10 9 9 8 8 8 9 10 9 8 8 8 8 8 8 8 8 9 8 8 8 8 9 11 12 11 10 11 11 12 13 13 13 14 15 15 14 15 15 15 14 13 12 11 12 11 9 9 8 9 9 9 9 8 8 9 10 9 8 7 8 9 10 10 9 11
13 12 12 11 12 12 11 9 10 11 11 9 9 9 8 8 8 8 8 9 9 9 8 9 9 9 10 10 11 11 11 12 13 13 13 13 13 14 15 15 15 15 15 14 14 14 13 13 10 9 9 10 11 10 9 8 8 8 7 7 7 7 8 7 8 8 7 7 9
14 13 12 12 13 13 12 11 12 12 11 9 9 9 8 8 8 8 8 8 9 9 9 10 9 9 9 10 12 12 12 13 13 12 12 13 13 13 14 14 15 15 15 14 14 14 14 14 10 9 9 10 10 9 9 10 9 8 7 5 6 7 7 7 7 7 7 7 7
14 14 14 13 13 13 12 11 13 13 12 10 10 11 10 9 9 9 9 9 10 11 11 11 10 10 10 11 12 12 12 12 11 11 12 13 13 13 14 15 15 15 14 14 15 15 15 13 10 9 9 9 9 10 11 11 10 9 8 6 6 7 7 8 7 7 7 8 8
15 15 15 14 14 13 13 13 13 13 12 11 13 14 13 12 12 13 13 12 11 11 11 10 10 10 11 11 12 12 11 11 11 12 12 12 12 13 13 14 14 15 15 15 15 14 13 12 9 9 9 9 9 10 11 11 10 9 9 8 6 6 7 9 7 7 8 11 11
15 16 16 15 15 15 15 14 13 13 12 12 13 15 16 16 15 15 14 13 12 11 10 9 10 11 11 11 11 12 12 12 12 12 12 12 13 13 13 14 14 15 15 15 15 14 13 11 9 9 9 9 8 9 11 12 12 11 11 10 8 7 7 8 7 8 9 12 13
15 15 16 15 15 15 15 15 14 14 14 14 15 16 17 16 16 15 14 13 12 11 11 10 11 12 13 13 12 12 12 11 12 12 12 12 12 12 13 13 14 14 15 15 15 15 14 11 9 9 9 9 9 10 11 13 13 13 12 10 9 8 8 8 9 9 10 12 14
16 16 16 16 16 15 15 15 15 16 16 16 17 17 17 17 16 15 14 12 11 11 11 11 12 13 13 13 13 12 11 11 11 12 12 12 12 12 12 12 13 14 14 14 14 14 14 11 10 10 11 10 11 12 13 14 14 13 12 9 9 10 11 10 10 11 12 12 13
17 17 16 15 16 16 16 16 15 15 16 16 17 17 17 17 16 15 13 12 12 13 13 13 13 13 13 13 12 12 11 11 11 11 12 12 12 12 12 12 13 13 14 14 13 13 12 11 11 12 13 13 13 13 14 14 14 14 13 11 11 12 12 12 11 11 11 12 14
18 17 17 16 16 16 15 15 14 15 15 16 17 17 16 15 15 15 14 13 14 14 14 14 14 14 13 11 11 11 11 11 12 12 12 12 13 13 13 13 13 13 14 14 13 12 11 11 12 14 15 15 13 12 12 14 14 13 14 14 13 13 12 12 12 11 10 11 13
18 18 17 17 17 16 16 15 14 14 15 16 16 15 15 15 15 15 14 14 14 14 13 13 13 13 12 11 11 11 11 11 12 12 12 12 12 13 13 13 13 13 14 14 13 12 12 12 14 15 16 16 14 13 13 14 14 14 14 14 14 13 13 12 12 12 12 12 13
19 19 18 18 17 16 15 15 14 14 14 16 15 15 14 14 14 14 14 14 14 14 13 13 12 12 12 12 12 12 12 12 12 12 12 13 13 13 13 13 13 13 13 13 13 13 13 14 15 15 16 16 16 16 15 14 14 14 14 15 15 14 14 13 12 12 12 13 14
20 20 19 18 17 16 15 15 14 14 14 16 15 14 13 13 13 13 13 13 14 14 13 12 11 11 12 13 13 13 13 13 13 13 13 13 13 13 13 13 13 13 13 13 13 13 14 15 15 16 16 16 16 16 16 15 14 14 15 15 15 15 14 14 13 12 12 13 14
21 20 20 19 18 17 16 15 13 14 15 16 15 15 14 14 13 13 13 13 13 12 12 12 12 11 11 12 13 12 12 12 13 13 13 13 13 13 14 14 13 13 13 13 13 14 14 15 15 15 16 16 16 16 16 15 15 15 15 16 15 15 15 14 14 13 13 13 13
21 21 20 20 20 19 18 17 15 15 15 16 17 17 16 15 13 13 13 13 12 12 12 13 12 12 12 12 12 11 11 11 12 13 13 14 14 14 14 14 13 13 13 13 13 14 14 15 15 15 15 16 16 16 16 15 15 15 15 16 16 15 15 15 14 14 14 14 14
21 21 21 21 21 21 20 19 18 18 18 18 18 17 16 15 15 14 13 13 13 13 13 14 13 13 13 13 12 11 11 11 12 12 13 13 13 13 13 13 13 13 13 13 13 14 14 15 15 14 14 14 15 15 15 14 14 15 15 16 16 16 15 15 15 14 13 14 14
21 21 21 21 21 21 21 21 20 20 19 19 18 17 17 17 17 16 15 14 14 14 14 14 13 13 13 14 13 12 11 12 13 13 14 13 13 13 13 13 13 13 13 13 13 14 14 14 14 14 14 14 14 14 14 14 14 14 15 15 16 16 16 15 15 14 13 14 14
22 22 21 21 21 21 21 21 20 20 19 18 18 18 18 17 17 16 16 16 15 15 15 15 14 14 14 14 14 13 12 11 13 14 14 14 13 12 12 12 13 13 13 13 13 13 13 13 13 13 13 13 14 14 14 14 14 14 14 15 15 15 15 15 15 14 14 14 15
22 22 22 21 21 21 21 20 20 20 20 19 19 19 18 17 17 16 16 16 15 15 15 16 16 15 15 14 14 13 12 11 12 13 14 14 13 13 12 12 12 12 12 12 12 13 13 13 12 11 11 12 13 13 13 13 13 13 14 13 14 14 15 15 15 15 15 15 15
22 22 22 22 21 21 21 21 20 20 19 19 19 19 18 18 18 17 17 16 16 16 16 16 16 16 15 14 14 13 12 11 12 12 13 13 13 13 12 11 12 12 12 12 13 13 13 11 10 10 11 11 11 12 12 13 13 13 13 13 14 14 15 16 15 15 15 15 15
22 22 21 21 21 22 22 22 21 21 20 20 20 19 19 19 19 19 18 17 17 16 16 16 15 15 15 15 14 13 13 12 12 12 13 13 12 12 12 11 11 12 12 12 12 12 11 9 10 10 11 10 11 12 13 14 14 13 13 13 14 14 15 15 15 15 15 15 15
22 22 20 19 20 22 22 22 22 21 21 21 20 20 20 20 20 19 19 19 18 18 17 15 15 15 15 15 14 13 13 13 13 13 13 12 12 12 12 11 11 11 12 11 11 11 10 8 8 9 9 10 10 11 12 13 14 14 14 14 14 14 14 15 15 16 16 16 15
23 22 22 21 22 22 22 22 22 22 21 21 21 20 20 20 20 19 19 19 19 18 18 17 16 15 15 14 14 13 13 13 13 13 12 12 12 12 11 11 11 11 10 10 13 14 14 13 11 10 9 9 10 11 11 13 14 14 15 15 15 14 14 15 16 16 16 17 16
23 23 23 23 22 22 23 22 22 22 22 21 21 20 20 20 19 19 19 19 18 18 18 18 17 16 14 14 14 13 13 11 11 12 12 12 13 13 12 11 11 9 9 10 13 15 17 19 19 16 13 10 10 11 11 12 13 14 15 16 15 15 14 14 15 15 15 15 15
23 23 23 23 23 23 23 23 22 22 22 21 21 20 20 19 18 18 19 19 18 18 17 16 15 15 14 13 14 14 14 11 11 12 13 13 14 14 13 11 10 8 8 11 15 17 19 21 22 21 19 14 12 12 12 12 13 14 15 15 16 15 15 15 16 16 15 14 15
24 23 23 24 24 24 23 23 23 23 22 22 21 20 20 20 19 19 19 18 18 17 15 14 13 12 11 11 12 14 14 14 13 12 12 12 13 13 12 11 10 9 11 14 17 20 21 23 24 24 23 19 14 13 13 13 14 14 14 14 15 15 16 15 15 15 15 14 14
24 24 24 24 24 24 23 23 23 23 22 22 21 21 20 20 20 20 19 19 18 17 15 13 12 11 10 11 12 13 14 14 12 10 9 9 10 10 10 11 10 11 13 17 19 21 22 24 24 25 25 23 16 13 11 12 12 12 12 12 13 14 14 14 13 12 12 13 14
24 24 24 24 24 24 23 23 23 23 22 21 21 21 21 20 20 20 20 19 19 18 16 14 13 13 13 13 13 12 11 10 9 8 9 9 10 11 11 13 12 13 15 18 20 22 23 24 24 25 25 25 20 15 12 12 13 13 13 13 14 15 16 15 13 12 12 12 13
24 24 24 24 24 24 23 23 23 22 21 20 21 21 21 20 20 20 19 19 18 17 16 16 16 16 16 14 12 11 10 9 9 9 10 11 13 14 14 15 15 15 16 18 20 22 23 24 25 25 25 25 20 16 13 13 14 14 14 14 15 17 17 15 13 13 13 14 14
24 24 24 24 24 24 23 23 22 22 21 22 21 21 21 20 20 19 18 18 17 17 16 16 17 17 17 15 12 11 11 11 11 11 12 12 14 14 15 15 15 15 16 18 21 22 23 24 24 24 25 25 21 17 15 14 15 15 15 16 18 18 17 14 12 13 14 15 15
24 24 24 24 24 24 23 22 22 21 21 21 21 21 20 20 19 18 18 17 17 16 16 15 15 16 16 15 14 13 12 12 12 13 13 13 14 14 14 14 13 14 16 19 21 22 23 23 24 24 24 25 20 17 14 14 13 13 14 15 17 18 18 17 14 14 14 15 14
24 24 24 23 23 23 22 22 21 21 20 20 20 20 19 19 19 18 18 17 16 15 15 14 13 14 14 15 15 14 14 13 13 13 14 14 14 15 15 13 12 13 17 20 22 23 23 23 23 24 24 24 19 15 13 13 13 13 13 14 16 16 16 15 15 14 14 15 14
24 24 23 23 23 22 22 21 21 20 20 20 20 19 19 19 18 18 18 17 17 17 16 15 14 13 14 14 15 16 16 16 15 15 15 15 15 16 16 16 14 16 19 22 23 23 23 23 23 24 23 22 16 13 12 14 13 13 14 15 15 15 15 14 14 14 15 15 15
23 23 23 23 23 22 22 21 20 20 20 19 19 19 19 18 17 17 17 17 17 17 17 16 15 15 15 15 16 16 17 17 17 17 16 16 16 16 17 17 17 18 20 22 23 23 23 23 23 23 22 19 14 12 11 11 12 13 14 14 14 13 13 13 13 13 14 14 13
23 23 23 23 23 22 21 21 20 20 19 19 19 19 18 18 17 16 16 16 17 17 17 16 16 16 16 16 16 16 17 18 18 18 17 17 16 16 17 17 17 17 19 21 22 23 23 23 23 23 21 16 13 12 11 11 10 11 12 13 11 10 10 10 10 11 12 12 12
22 22 22 23 22 22 21 20 20 19 19 19 19 18 18 17 16 16 15 15 16 16 17 16 16 16 16 16 16 16 17 17 17 17 17 16 16 16 16 17 16 16 17 19 22 23 23 23 23 22 20 15 13 12 11 10 10 11 11 11 10 10 10 9 9 9 10 12 12
22 22 22 22 22 22 21 21 20 19 19 19 18 18 17 16 15 15 15 15 15 16 16 16 16 16 16 16 15 15 15 15 15 15 16 16 16 17 17 18 17 16 17 19 21 22 23 23 23 22 20 16 12 10 10 10 11 11 11 11 11 11 11 10 9 9 10 12 15
22 21 21 21 21 21 21 21 20 19 18 17 18 17 17 16 15 15 15 14 15 15 15 15 16 17 17 16 16 15 15 14 14 15 16 17 17 19 19 19 18 17 18 19 21 22 22 22 22 22 20 15 12 10 9 9 10 11 11 11 10 10 10 10 9 9 10 11 14
21 21 21 20 20 20 20 20 19 18 17 17 17 17 16 16 15 15 14 14 14 14 14 14 16 17 17 17 16 15 15 16 15 16 16 17 18 19 19 18 18 17 17 18 20 21 22 23 23 23 21 16 12 10 9 9 10 11 12 11 10 9 9 9 9 9 10 11 11
Wind_Direction
278 276 276 276 277 278 278 278 278 278 279 279 280 281 281 282 282 282 281 279 278 277 276 274 272 272 272 271 272 274 277 280 284 286 288 291 292 293 294 294 293 291 290 290 290 290 289 287 285 283 279 278 278 277 276 272 267 261 254 248 244 241 238 236 234 231 228 227 227
277 275 274 275 277 278 279 279 278 277 276 276 277 279 279 280 280 281 280 277 275 274 274 274 272 270 270 270 270 272 275 278 282 284 287 289 290 291 292 292 292 291 291 291 291 290 288 287 286 284 281 279 277 276 274 273 270 265 258 251 247 242 238 237 236 234 232 231 230
276 275 274 274 275 276 276 277 277 276 275 275 275 276 277 277 278 278 278 276 275 274 273 272 270 269 268 268 269 270 273 276 280 282 285 286 288 289 290 290 291 291 291 290 290 289 288 288 287 285 282 279 277 276 274 272 270 267 261 255 250 243 237 236 236 234 232 231 230
275 274 274 273 273 272 272 274 276 276 276 276 276 275 274 273 274 275 275 276 276 273 270 268 267 266 266 267 268 270 271 274 277 280 282 283 285 286 288 289 290 290 290 290 289 288 288 288 287 284 281 280 278 276 274 272 270 266 261 257 252 245 240 237 236 233 230 230 230
277 275 274 274 274 273 272 273 274 275 275 276 276 276 275 273 272 272 273 272 270 268 267 266 266 265 266 267 269 270 271 273 275 277 279 280 282 284 285 287 288 289 289 289 289 288 288 288 286 283 280 279 277 274 273 272 269 266 262 256 252 247 243 239 234 231 229 229 228
278 276 275 275 275 275 274 273 273 273 273 274 275 275 275 274 274 273 273 272 271 271 270 268 266 265 265 266 267 268 270 272 273 274 276 278 279 281 283 285 286 287 287 288 288 287 287 287 284 281 279 278 276 273 272 271 269 266 262 257 254 251 247 242 236 232 229 230 230
279 278 278 278 277 276 274 273 273 273 273 274 274 274 274 274 274 274 274 274 274 273 271 267 264 262 262 263 265 268 270 271 272 273 274 275 276 278 279 281 284 285 285 286 286 286 285 285 282 280 279 278 276 274 272 270 268 266 264 261 256 252 248 245 239 234 231 232 231
279 279 279 279 278 277 275 273 273 273 274 274 274 275 275 275 274 274 274 274 273 271 268 266 262 260 260 260 263 266 269 271 273 273 273 273 273 274 276 278 281 282 283 284 285 284 284 284 281 279 279 278 276 274 272 270 268 266 264 263 261 255 250 246 241 237 234 235 233
280 279 279 279 278 277 276 274 273 272 273 274 275 276 276 276 275 274 273 272 270 267 264 263 261 259 258 258 261 263 266 269 272 273 273 272 271 271 273 275 278 281 282 284 284 284 284 282 279 277 277 276 274 273 271 269 266 264 262 261 260 258 254 250 244 240 237 236 236
281 281 281 281 280 279 277 276 274 274 274 274 275 275 275 275 274 272 270 268 267 265 263 261 261 260 260 259 260 262 264 266 268 270 271 270 268 268 269 272 275 278 280 282 283 283 284 281 278 276 275 274 274 273 271 269 266 263 262 260 259 259 258 255 249 243 239 237 237
283 282 282 282 281 280 279 277 276 275 275 275 275 275 274 273 272 270 268 266 265 263 262 261 261 261 261 260 261 262 263 263 264 265 266 266 265 265 266 268 271 274 276 279 281 281 281 279 277 276 276 276 275 274 272 269 265 263 261 260 259 259 259 257 253 247 242 240 240
284 283 282 281 280 279 278 276 276 276 276 275 275 274 273 272 269 267 264 262 261 261 261 261 260 260 260 260 260 261 262 262 262 262 263 263 263 263 264 266 268 271 273 275 277 277 277 276 276 276 277 276 275 273 271 269 265 263 260 259 258 257 256 256 255 251 247 243 243
286 284 283 282 280 278 277 276 275 275 274 274 272 271 270 269 267 264 262 260 259 260 261 260 259 258 257 256 257 258 259 259 259 259 259 259 260 261 262 264 266 269 271 273 274 274 274 274 275 276 276 276 275 274 272 270 268 264 261 259 258 257 256 256 255 254 251 248 246
287 285 284 282 280 278 277 276 275 275 274 273 272 270 268 267 265 262 260 258 257 258 260 260 258 256 254 253 254 254 255 256 256 256 256 257 259 260 262 264 266 268 270 271 272 272 272 273 274 275 275 276 275 274 273 271 268 264 262 259 258 258 257 257 256 255 253 251 249
288 286 285 283 280 278 276 275 275 276 276 276 274 271 269 268 265 262 259 256 255 256 257 258 257 255 253 252 253 253 254 256 256 256 255 256 258 259 261 264 265 267 268 269 270 270 270 271 273 274 275 275 274 274 272 270 266 264 261 259 258 258 258 259 258 257 255 253 252
289 288 286 284 281 279 277 275 275 276 277 277 276 274 273 271 269 264 260 256 255 254 255 255 255 255 254 253 253 253 253 254 255 256 256 257 257 258 259 262 263 264 265 266 268 269 270 271 272 273 274 274 274 273 272 269 266 264 261 259 258 257 257 258 259 259 258 255 254
289 289 287 285 283 281 279 277 276 276 277 277 276 275 275 274 272 268 263 258 257 256 255 255 255 256 256 255 254 253 252 252 252 253 255 256 257 257 258 259 260 261 262 264 266 268 270 271 273 274 274 274 274 273 272 269 267 264 262 259 257 256 255 256 257 259 259 259 257
291 290 289 288 285 284 282 280 278 277 277 276 276 275 274 273 272 269 265 261 259 258 258 257 257 257 258 258 257 255 253 252 252 252 253 254 255 255 256 257 258 259 261 263 265 267 269 270 272 273 273 274 273 272 270 268 265 262 260 259 257 255 254 254 255 257 259 260 260
294 293 292 290 288 286 285 283 282 280 279 278 277 276 275 273 272 270 268 265 263 262 260 260 259 258 258 258 257 255 254 254 254 254 254 254 254 253 253 254 257 259 260 263 264 266 267 268 270 272 274 275 274 272 269 266 263 261 259 258 256 255 254 253 254 255 257 260 260
298 297 296 294 292 290 288 286 285 283 282 281 280 279 277 275 273 271 270 268 266 265 263 262 261 260 259 258 257 255 254 255 256 256 256 256 254 253 252 253 256 259 261 263 263 264 264 265 267 271 274 276 274 271 267 264 261 259 257 257 255 254 253 253 254 255 256 258 260
302 301 299 298 296 294 292 290 288 287 285 284 283 281 279 276 274 272 270 269 267 265 263 262 261 260 259 258 257 255 253 254 256 257 258 257 255 253 252 254 256 259 260 261 261 260 259 259 263 269 273 274 274 274 272 270 265 262 259 258 257 256 255 254 254 254 255 257 258
303 302 301 300 299 297 296 294 292 291 289 287 285 284 282 280 278 275 274 271 268 266 263 262 260 259 258 258 256 254 253 253 253 255 256 257 256 255 254 255 257 257 258 257 255 254 254 257 263 268 272 274 279 283 284 282 277 271 267 264 262 261 259 257 256 255 255 256 256
302 302 301 300 300 299 298 297 295 294 292 291 289 287 286 284 282 280 277 274 271 268 265 263 261 260 258 256 254 253 252 253 253 253 253 253 254 254 256 257 257 257 256 253 251 252 255 263 268 271 272 275 279 282 283 283 281 277 273 269 266 265 263 261 259 257 255 254 253
302 301 301 300 299 299 298 297 296 295 293 292 291 289 287 285 283 281 277 274 271 268 266 264 262 261 259 257 253 251 251 252 253 252 251 249 250 252 254 256 255 253 252 250 250 254 260 267 269 270 271 272 273 274 275 277 278 278 276 272 268 266 265 263 260 257 254 252 251
301 300 299 298 298 297 296 296 294 293 292 291 290 289 287 285 283 280 277 274 271 269 267 265 263 261 259 257 255 252 249 249 249 249 248 247 247 250 252 255 253 250 248 248 254 260 266 272 274 275 275 274 274 273 272 271 273 274 274 273 269 266 265 263 261 258 255 253 251
299 299 298 297 296 295 295 294 293 292 291 289 288 287 286 285 283 280 277 274 271 269 267 265 263 262 259 258 256 253 250 245 243 242 243 245 248 249 250 251 251 251 252 255 262 268 272 276 277 278 279 279 277 275 273 271 269 269 269 269 268 265 262 261 260 259 257 255 254
298 297 296 296 295 294 293 293 292 291 289 288 287 286 285 284 283 280 278 275 272 269 267 265 263 262 261 260 258 255 252 245 240 239 241 245 248 248 246 243 242 243 248 255 263 269 273 275 276 277 278 278 276 275 273 271 269 267 266 265 264 262 259 258 259 259 259 257 256
297 296 296 295 294 293 293 292 291 290 288 287 286 286 285 285 284 282 280 278 275 272 269 266 264 262 260 257 255 254 253 251 247 245 245 248 250 248 245 240 239 242 247 254 262 267 272 275 276 277 277 276 275 272 270 269 267 265 262 260 260 258 257 255 256 257 258 257 255
296 295 295 294 293 292 292 291 290 289 288 287 287 286 285 285 284 284 283 281 278 275 271 268 264 261 258 254 255 256 258 260 261 262 263 263 261 258 255 254 253 254 257 260 265 270 273 275 276 277 277 276 274 272 269 266 264 261 258 256 256 256 255 254 255 256 257 256 255
296 295 294 293 292 291 291 290 289 289 288 288 287 286 285 284 283 283 282 281 279 278 276 273 270 266 263 260 261 261 263 265 268 271 273 271 267 265 263 262 262 262 263 265 269 273 275 277 277 277 277 276 275 272 268 264 262 259 257 255 255 256 257 257 257 258 258 258 257
297 295 294 293 291 290 289 289 289 288 288 288 287 285 284 282 281 281 281 280 280 280 279 278 275 271 267 261 257 255 253 252 252 252 254 255 256 257 258 260 261 262 265 267 272 275 277 278 278 277 277 276 273 269 264 260 258 256 255 254 254 255 257 258 257 257 258 260 259
298 296 294 293 291 290 289 289 288 288 287 286 285 284 282 281 280 280 279 279 279 279 279 278 277 274 270 263 254 248 245 245 245 245 246 247 250 253 256 258 259 261 265 268 273 275 277 277 277 277 276 274 271 267 262 259 257 255 253 253 253 253 253 252 252 254 257 259 259
299 297 295 293 291 290 289 288 288 287 286 285 284 283 281 280 279 279 278 278 277 276 275 275 275 275 273 270 262 255 250 248 248 248 249 250 253 255 258 260 261 264 267 270 273 275 276 276 277 276 275 274 271 269 266 264 262 258 254 251 250 250 250 250 250 252 254 256 257
301 299 296 293 292 290 289 288 287 286 285 283 282 281 280 279 279 278 277 276 276 275 273 271 270 270 271 272 269 266 261 257 255 255 255 256 258 260 262 263 264 267 269 271 273 274 275 275 276 276 276 275 274 273 272 271 269 265 259 254 250 248 247 248 250 251 252 252 251
304 302 299 296 293 291 290 288 287 285 284 282 281 280 278 277 276 276 275 275 275 274 272 270 267 265 265 266 267 267 266 264 263 262 262 263 264 265 266 267 268 269 270 271 271 273 274 275 275 276 276 275 274 273 273 275 274 271 267 261 257 254 252 251 251 250 250 248 247
307 305 302 299 296 294 291 289 287 285 283 281 280 279 278 276 275 274 273 274 274 273 272 270 268 266 264 264 264 264 265 266 266 266 265 265 265 266 267 268 268 268 268 269 270 272 273 274 275 276 275 275 272 271 271 272 273 271 269 267 264 261 259 257 255 253 251 248 246
309 308 306 303 300 297 293 289 287 285 283 281 280 279 278 277 275 274 273 272 272 272 270 269 268 266 265 264 264 265 266 267 267 267 267 265 264 265 266 267 267 266 266 267 269 271 272 273 274 274 273 272 270 269 269 269 268 269 270 270 270 270 270 269 265 262 259 257 255
310 309 308 306 304 300 296 291 287 285 283 282 281 280 279 278 277 274 272 271 270 270 269 268 266 265 264 264 264 265 266 266 267 268 268 266 265 264 265 266 266 265 264 265 267 269 271 271 272 271 271 269 268 268 268 267 266 267 269 272 274 276 277 276 274 273 270 268 265
309 309 308 307 305 303 299 294 289 285 283 283 282 281 280 279 277 275 273 271 270 269 269 268 267 266 265 263 263 263 262 263 264 265 266 265 263 263 264 265 266 265 264 265 266 268 269 270 270 270 270 270 269 268 267 267 267 268 270 272 274 274 274 272 271 271 270 269 267
308 307 307 306 306 304 301 297 291 286 283 282 282 282 281 280 278 277 275 273 270 269 268 268 268 267 266 264 262 260 259 258 258 259 260 261 261 262 263 265 267 267 267 267 268 270 271 271 271 272 272 272 270 268 267 267 269 270 270 271 271 271 271 269 268 267 267 268 266
307 306 305 305 305 304 303 300 294 289 285 283 282 281 281 280 279 278 277 275 272 269 268 268 269 268 267 265 263 261 259 258 258 257 258 260 261 262 264 266 268 269 270 269 270 271 272 273 273 273 272 270 268 266 265 265 266 267 267 267 267 267 267 267 267 266 265 266 265